This is the latest recevied weather packets stored in our database for station/object NI4CE-11. If no packets are shown the sender has not sent any weather packets the latest 10 day(s).
| Time | Temp. | Humidity | Pressure | Rain* | Wind** | Luminosity | Snow |
|---|---|---|---|---|---|---|---|
| 1777488921 | 35° C | 100% | 1015 hPa | 0 mm | - | - | - |
| 1777488621 | 35° C | 100% | 1015.1 hPa | 0 mm | - | - | - |
| 1777488321 | 35° C | 100% | 1015 hPa | 0 mm | - | - | - |
| 1777488021 | 35° C | 100% | 1014.9 hPa | 0 mm | - | - | - |
| 1777487721 | 35° C | 100% | 1015 hPa | 0 mm | - | - | - |
| 1777487720 | 34.44° C | 100% | 1015 hPa | 0 mm | - | - | - |
| 1777487421 | 34.44° C | 100% | 1015 hPa | 0 mm | - | - | - |
| 1777487406 | 34.44° C | 100% | 1015 hPa | 0 mm | - | - | - |
| 1777487121 | 34.44° C | 100% | 1015 hPa | 0 mm | - | - | - |
| 1777486949 | 34.44° C | 100% | 1015.8 hPa | 0 mm | - | - | - |
| 1777486821 | 33.89° C | 100% | 1015.2 hPa | 0 mm | - | - | - |
| 1777486521 | 35° C | 100% | 1015.3 hPa | 0 mm | - | - | - |
| 1777486221 | 32.22° C | 100% | 1015.4 hPa | 0 mm | - | - | - |
| 1777485921 | 32.22° C | 100% | 1015.5 hPa | 0 mm | - | - | - |
| 1777485621 | 34.44° C | 100% | 1015.6 hPa | 0 mm | - | - | - |
| 1777485321 | 34.44° C | 100% | 1015.7 hPa | 0 mm | - | - | - |
| 1777485021 | 34.44° C | 100% | 1015.8 hPa | 0 mm | - | - | - |
| 1777484937 | 32.22° C | 100% | 1016.1 hPa | 0 mm | - | - | - |
| 1777484721 | 33.89° C | 100% | 1015.8 hPa | 0 mm | - | - | - |
| 1777484421 | 32.78° C | 100% | 1015.8 hPa | 0 mm | - | - | - |
| 1777484121 | 33.89° C | 100% | 1015.9 hPa | 0 mm | - | - | - |
| 1777483821 | 32.78° C | 100% | 1016 hPa | 0 mm | - | - | - |
| 1777483521 | 32.22° C | 100% | 1016.1 hPa | 0 mm | - | - | - |
| 1777483221 | 34.44° C | 100% | 1016.1 hPa | 0 mm | - | - | - |
| 1777482921 | 32.22° C | 100% | 1016.1 hPa | 0 mm | - | - | - |
* Rain latest hour (hover to see other rain measurements)
** Current wind speed in m/s (hover to see current wind gust speed)